Flag for Germany Weather past 2 weeks in Rheinberg, North Rhine-Westphalia, Germany

Now
49 °F

Scattered clouds.


Feels Like: 48 °F
Forecast: 44 / 70 °F
Wind: 3 mph from Southwest

Location: Duesseldorf

Current Time: May 30, 2015 at 7:46:24 AM

Latest Report: May 30, 2015 at 7:00 AM


Visibility: 8 mi

Pressure: 29.88 "Hg

Humidity: 90%

Dew point: 46 °F

Location of RheinbergLocation

Historic Weather in Rheinberg — Graph

°F

Rheinberg temperature yesterday

Maximum temperature yesterday: 63 °F (at 4:00 PM)
Minimum temperature yesterday: 49 °F (at 6:00 AM)
Average temperature yesterday: 56 °F

Past Weeks' High & Low Weather Summary

 TemperatureHumidityPressure
High69 °F (May 18, 3:00 PM)99% (May 17, 2:00 AM)30.34 "Hg (May 17, 2:00 AM)
Low38 °F (May 21, 4:00 AM)36% (May 22, 4:00 PM)29.65 "Hg (May 18, 8:00 PM)
Average55 °F68%30.07 "Hg
* Reported May 15 6:00 AM — May 30 6:00 AM, Rheinberg, Weather by CustomWeather, © 2015

Note: Actual official high and low records may vary slightly from our data, if they occured in-between our weather recording intervals... More about our weather records

Advertising

Rheinberg weather history for previous 24 hours

 ConditionsComfort  
Time TempWeatherWind HumidityBarometerVisibility
6:00 AM
Sat, May 30
49 °FLow clouds.3 mph88%29.85 "Hg16 mi
5:00 AM49 °FLow clouds.3 mph94%29.84 "Hg16 mi
4:00 AM49 °FOvercast.3 mph94%29.83 "Hg22 mi
3:00 AM48 °FOvercast.3 mph95%29.81 "Hg25 mi
2:00 AM48 °FPassing clouds.3 mph95%29.81 "Hg25 mi
1:00 AM49 °FRain. Overcast.6 mph92%29.80 "Hg22 mi
12:00 AM48 °FRain. Overcast.6 mph92%29.79 "Hg22 mi
10:00 PM
Fri, May 29
57 °FLight rain. Overcast.7 mph64%29.77 "Hg19 mi
9:00 PM58 °FLight rain. Overcast.10 mph61%29.76 "Hg16 mi
8:00 PM59 °FOvercast.7 mph53%29.76 "Hg31 mi
7:00 PM60 °FOvercast.9 mph49%29.75 "Hg31 mi
6:00 PM61 °FOvercast.10 mph44%29.76 "Hg31 mi
4:00 PM63 °FOvercast.10 mph50%29.78 "Hg22 mi
3:00 PM61 °FOvercast.9 mph51%29.79 "Hg25 mi
2:00 PM61 °FOvercast.8 mph52%29.82 "Hg25 mi
1:00 PM59 °FOvercast.8 mph53%29.83 "Hg25 mi
12:00 PM58 °FOvercast.8 mph52%29.85 "Hg25 mi
10:00 AM55 °FOvercast.6 mph67%29.88 "Hg22 mi
9:00 AM54 °FOvercast.3 mph74%29.89 "Hg19 mi
8:00 AM52 °FOvercast.3 mph77%29.90 "Hg19 mi
7:00 AM50 °FPartly sunny.3 mph85%29.90 "Hg19 mi
Weather by CustomWeather, © 2015

See weather overviewHow to use our weather pages